Regional Weather Roundup
Issued by NWS Upton, NY

Current Version | Previous Version | Text Only | Print | Product List | Glossary On
Versions: 1 2 3 4 5 6 7 8 9 10 11 12 13 14 15 16 17 18 19 20 21 22 23 24 25 26 27 28 29 30 31 32 33 34 35 36 37 38 39 40 41 42 43 44 45 46 47 48 49 50
000
ASUS41 KOKX 220205
RWROKX
REGIONAL WEATHER ROUNDUP
NATIONAL WEATHER SERVICE NEW YORK NY
1000 PM EDT MON JUL 21 2014

NOTE: "FAIR" INDICATES FEW OR NO CLOUDS BELOW 12,000 FEET WITH NO
SIGNIFICANT WEATHER AND/OR OBSTRUCTIONS TO VISIBILITY.

NYZ071-072-176-178-NJZ106-104-220300-
NEW YORK CITY METRO AREA


CITY           SKY/WX    TMP DP  RH WIND       PRES   REMARKS
CENTRAL PARK   CLEAR     74  61  63 CALM      30.20R
LAGUARDIA APRT PTCLDY    74  61  63 S8        30.17R
KENNEDY INTL   PTCLDY    72  65  78 S9        30.19R
NEWARK/LIBERTY PTCLDY    75  63  66 S7        30.17R
BRNX BOT. GARD   N/A     72  61  68 SE5       30.17S
TETERBORO      CLEAR     77  61  57 S6        30.16R
$$

NYZ177-179-078>081-220300-
LONG ISLAND NEW YORK

CITY           SKY/WX    TMP DP  RH WIND       PRES   REMARKS
FARMINGDALE    CLEAR     70  64  81 S6        30.18R
ISLIP          PTCLDY    71  64  78 SW5       30.16S
SHIRLEY        CLEAR     69  65  86 S5        30.18S
WESTHAMPTON    CLEAR     63  60  90 CALM      30.20R
MONTAUK POINT    N/A     68  63  84 CALM      30.20R
$$

NYZ052-065-067-220300-
HUDSON VALLEY

CITY           SKY/WX    TMP DP  RH WIND       PRES   REMARKS
WHITE PLAINS   PTCLDY    69  62  78 S3        30.18R
NEWBURGH       MOCLDY    77  66  69 SW7       30.18R
MONTGOMERY     CLOUDY    73  66  78 SW3       30.16R
POUGHKEEPSIE   CLOUDY    75  66  73 SE3       30.15R
ALBANY         PTCLDY    75  63  66 SE3       30.13R
$$

NJZ001-105-106-008-010-013-015-019>022-104-220300-
NEW JERSEY

CITY           SKY/WX    TMP DP  RH WIND       PRES   REMARKS
NEWARK/LIBERTY PTCLDY    75  63  66 S7        30.17R
TETERBORO      CLEAR     77  61  57 S6        30.16R
CALDWELL       CLEAR     75  65  70 CALM      30.18R
MORRISTOWN     CLEAR     75  64  69 SW6       30.17R
SOMERVILLE     CLEAR     72  65  78 S3        30.15R
LINDEN         FAIR      76  64  66 S3        30.19R
SUSSEX         CLEAR     70  65  84 CALM      30.18R
ANDOVER          N/A     69  65  86 CALM      30.18R
TRENTON        CLEAR     72  63  73 S9        30.17R
MILLVILLE      PTCLDY    67  62  84 CALM      30.19R
ATLANTIC CITY  PTCLDY    70  63  78 S5        30.19R
WRIGHTSTOWN    CLEAR     69  62  79 S3        30.16S
TOMS RIVER     CLEAR     68  61  77 CALM      30.19S
BELMAR         CLEAR     70  61  73 SW5       30.18S
$$

PAZ047>061-062-071-220300-
EASTERN PENNSYLVANIA

CITY           SKY/WX    TMP DP  RH WIND       PRES   REMARKS
PHILADELPHIA   PTCLDY    75  59  57 S7        30.18R
ALLENTOWN      CLEAR     74  63  68 CALM      30.17R
SCRANTON       CLEAR     73  64  73 CALM      30.18R
$$

CTZ002-004>006-009-010-012-RIZ004-006-007-MAZ004-011-015-220300-
SOUTHERN NEW ENGLAND
 IN CT

CITY           SKY/WX    TMP DP  RH WIND       PRES   REMARKS
BRADLEY INTL   PTCLDY    76  61  59 S8        30.15R
HARTFORD       PTCLDY    73  58  59 S6        30.16R
DANBURY        PTCLDY    71  61  70 CALM      30.19R
WTRBRY/OXFORD  CLEAR     68  61  77 S5        30.21R
BRIDGEPORT     CLEAR     73  65  75 SW6       30.17R
MERIDEN        CLEAR     70  62  76 CALM      30.17R
NEW HAVEN      MOCLDY    74  64  71 SW3       30.18R
CHESTER        FAIR      66  63  88 S3        30.20R
GROTON         CLEAR     66  64  93 CALM      30.17S
WILLIMANTIC    CLEAR     70  61  73 S5        30.18R

 IN RI

CITY           SKY/WX    TMP DP  RH WIND       PRES   REMARKS
PROVIDENCE     PTCLDY    69  62  78 SW5       30.18R
BLOCK ISLAND   CLEAR     66  61  82 W5        30.19S
WESTERLY       CLEAR     67  62  84 CALM      30.19R

 IN MA

CITY           SKY/WX    TMP DP  RH WIND       PRES   REMARKS
BOSTON         NOT AVBL
WORCESTER      CLEAR     69  58  67 S7        30.20R
WESTFIELD      CLEAR     69  64  84 CALM      30.15R
PROVINCETOWN   CLOUDY    64  63  94 CALM      30.18S VSB 1/4
NANTUCKET      FOG       64  63  96 NE8       30.17R VSB 1/2
$$

ANZ330-335-338-340-345-350-353-355-220300-
COASTAL MARINE OBSERVATIONS


STATION/POSITION TIME  SKY/WX   TEMP    WIND        PRES    VSBY  WAVE
                                AIR SEA DIR/SP/G                  HT/PER
                 (UTC)          (F)     (DEG/KT/KT) (MB)    (MI)  (FT/S)
NY HARB ENTRANCE NOT AVBL
4S FIRE IS       NOT AVBL
23SW MTP         0200            69 70              1021.7          3/ 8
HUDSON CANYON    0200            69 73  300/  2/  2 1021.9          3/ 8
EXECUTION ROCKS  0200            73 71  190/  8/ 12   N/A
WESTERN LI SOUND 0200            73     200/  8/ 10   N/A           0
CENTRAL LI SOUND 0100            71 72  190/  8/ 10   N/A           1
EASTERN LI SOUND 0100            67 65  190/  4/  6   N/A
ROBBINS REEF     0200            73     170/ 10/ 11   N/A
$$


>>>>>>>>>>>>>>>>>>>>>>>>>>>> KEY <<<<<<<<<<<<<<<<<<<<<<<<<<<
>                                                          <
>     SKY/WX - SKY CONDITION/PRESENT WEATHER               <
>     TMP    - TEMPERATURE IN FAHRENHEIT                   <
>     DP     - DEWPOINT IN FAHRENHEIT                      <
>     RH     - RELATIVE HUMIDITY IN PERCENT                <
>     WIND   - DIRECTION AND SPEED IN MPH                  <
>     PRES   - MEAN SEA LEVEL PRESSURE IN INCHES OF HG     <
>     WCI    - WIND CHILL INDEX                            <
>     VSB    - VISIBILITY IN MILES                         <
>     HX     - HEAT INDEX                                  <
>     TC     - TEMPERATURE IN CELSIUS                      <
>     VRB    - VARIABLE WIND DIRECTION                     <
>                                                          <
>>>>>>>>>>>>>>>>>>>>>>>>>>>> KEY <<<<<<<<<<<<<<<<<<<<<<<<<<<





USA.gov is the U.S. government's official web portal to all federal, state and local government web resources and services.